Change the Weather History Date:

Thursday, October 3, 2013

  Actual Average Record
Temperature  
Mean Temperature 63 °F 59 °F  
Max Temperature 82 °F 76 °F 99 °F (1925)
Min Temperature 43 °F 41 °F 26 °F (1943)
Degree Days  
Heating Degree Days 2 7  
Month to date heating degree days 3 20  
Since 1 July heating degree days 25 103  
Cooling Degree Days 0 1  
Month to date cooling degree days 2 3  
Year to date cooling degree days 1568 1115  
Growing Degree Days 12 (Base 50)    
Moisture  
Dew Point 44 °F    
Average Humidity 61    
Maximum Humidity 96    
Minimum Humidity 26    
Precipitation  
Precipitation 0.00 in 0.02 in 1.10 in (1930)
Month to date precipitation 0.00 0.08  
Year to date precipitation 9.37 13.70  
Sea Level Pressure  
Sea Level Pressure 29.61 in    
Wind  
Wind Speed 7 mph (North)    
Max Wind Speed 17 mph    
Max Gust Speed 28 mph    
Visibility 10 miles    
Events      
T = Trace of Precipitation, MM = Missing Value Source: NWS Daily Summary

Daily Weather History Graph

Daily Weather History Graph

Search for Another Location

Airport or City:

Trip Planner

Search our weather history database for the weather conditions in past years. The results will help you decide how hot, cold, wet, or windy it might be!

Date:

Astronomy

Oct. 03, 2013 Rise Set
Actual Time 6:48 AM MDT 6:30 PM MDT
Civil Twilight 6:22 AM MDT 6:56 PM MDT
Nautical Twilight 5:51 AM MDT 7:26 PM MDT
Astronomical Twilight 5:20 AM MDT 7:57 PM MDT
Moon 5:24 AM MDT (10/3) 5:39 PM MDT (10/3)
Length of Visible Light 12h 34m
Length of Day
11h 41m
Waning Crescent, 2% of the Moon is Illuminated
Oct 3
Waning Crescent
Oct 4
New
Oct 11
First Quarter
Oct 18
Full
Oct 26
Last Quarter

Hourly Weather History & Observations

Time (MDT) Temp. Windchill Dew Point Humidity Pressure Visibility Wind Dir Wind Speed Gust Speed Precip Events Conditions
12:53 AM 46.0 °F - 41.0 °F 83% 29.64 in 10.0 mi Calm Calm - N/A   Clear
1:53 AM 46.9 °F - 39.9 °F 77% 29.64 in 10.0 mi SSW 5.8 mph - N/A   Clear
2:53 AM 45.0 °F 43.5 °F 39.9 °F 82% 29.62 in 10.0 mi SW 3.5 mph - N/A   Clear
3:53 AM 44.1 °F 42.5 °F 37.9 °F 79% 29.64 in 10.0 mi SW 3.5 mph - N/A   Clear
4:53 AM 48.9 °F - 45.0 °F 86% 29.64 in 10.0 mi WNW 8.1 mph - N/A   Clear
5:53 AM 48.0 °F - 42.1 °F 80% 29.65 in 10.0 mi West 6.9 mph - N/A   Clear
6:53 AM 45.0 °F 42.6 °F 41.0 °F 86% 29.68 in 10.0 mi West 4.6 mph - N/A   Clear
7:53 AM 50.0 °F - 44.1 °F 80% 29.70 in 10.0 mi WSW 4.6 mph - N/A   Clear
8:53 AM 57.9 °F - 44.1 °F 60% 29.72 in 10.0 mi NNW 9.2 mph - N/A   Clear
9:53 AM 62.1 °F - 46.0 °F 56% 29.70 in 10.0 mi NNW 3.5 mph - N/A   Clear
10:53 AM 64.0 °F - 48.0 °F 56% 29.70 in 10.0 mi Calm Calm - N/A   Clear
11:53 AM 70.0 °F - 48.9 °F 47% 29.67 in 10.0 mi Variable 3.5 mph - N/A   Clear
12:53 PM 72.0 °F - 48.9 °F 44% 29.65 in 10.0 mi Calm Calm - N/A   Clear
1:53 PM 77.0 °F - 46.0 °F 33% 29.59 in 10.0 mi NNE 4.6 mph - N/A   Clear
2:53 PM 79.0 °F - 44.1 °F 29% 29.57 in 10.0 mi East 5.8 mph - N/A   Clear
3:53 PM 81.0 °F - 42.1 °F 25% 29.54 in 10.0 mi East 13.8 mph - N/A   Clear
4:53 PM 81.0 °F - 43.0 °F 26% 29.50 in 10.0 mi East 13.8 mph 21.9 mph N/A   Clear
5:53 PM 78.1 °F - 43.0 °F 29% 29.49 in 10.0 mi East 13.8 mph - N/A   Clear
6:53 PM 73.0 °F - 41.0 °F 31% 29.51 in 10.0 mi East 11.5 mph - N/A   Clear
7:53 PM 66.0 °F - 48.0 °F 52% 29.53 in 10.0 mi NE 15.0 mph 20.7 mph N/A   Clear
8:53 PM 66.0 °F - 46.9 °F 50% 29.53 in 10.0 mi Variable 4.6 mph - N/A   Clear
10:53 PM 54.0 °F - 50.0 °F 86% 29.55 in 7.0 mi ENE 9.2 mph - N/A   Clear
11:53 PM 52.0 °F - 50.0 °F 93% 29.55 in 6.0 mi NNW 5.8 mph - N/A   Clear